[[{"header":{"parameterUnit":"m.s-1","parameterCategory":1,"la1":30.2991,"la2":30.254,"lo1":-89.0895,"lo2":-89.0444,"dx":0.0017,"dy":0.0017,"nx":28,"ny":28,"refTime":"2023-01-22T03:00:00:Z","depth":0,"parameterNumber":2,"parameterNumberName":"U-component_of_WINDS"},"data":[0,0,0,0,0,0,0,0,0,0,0,0,0,0,0,0,0,0,0,0,0,0,0,0,0,0,0,0,0,0,0,0,0,0,0,0,0,0,0,0,0,0,0,0,0,0,0,0,0,0,0,0,0,0,0,0,0,0,4.7013,4.7014,0,4.7163,4.7165,4.7166,4.7152,4.715,4.7147,4.7145,4.7298,4.7304,4.7311,0,0,0,0,0,0,0,0,0,0,0,0,0,4.6715,4.672,4.7013,4.7015,4.7016,4.7163,4.7165,4.7167,4.7153,4.715,4.7147,4.7144,4.7296,4.7304,4.7311,0,0,0,0,0,0,0,0,0,0,0,0,0,4.6852,4.6722,4.7012,4.7027,4.703,4.7162,4.7165,4.7167,4.7153,4.715,4.7146,4.7143,4.7294,4.7303,4.7312,4.744,0,0,4.7341,4.7345,0,0,0,0,0,0,0,0,4.6845,4.6863,4.7023,4.7026,4.703,4.7135,4.7116,4.7259,4.7154,4.7106,4.7145,4.7141,4.7247,4.726,4.7296,4.7447,4.7453,4.7342,4.7347,4.7351,4.7354,0,0,0,0,0,0,0,4.6835,4.6857,4.7072,4.7025,4.7029,4.7026,4.7042,4.7143,4.7194,4.711,4.711,4.7128,4.7248,4.7287,4.7299,4.7456,4.7341,4.735,4.7355,4.7359,4.7721,4.7725,0,0,0,0,0,0,4.6822,4.6849,4.7067,4.7077,4.6927,4.7035,4.7052,4.7105,4.7193,4.7203,4.713,4.7126,4.7272,4.7288,4.7304,4.7461,4.7351,4.736,4.7365,4.7717,4.7722,4.7727,0,0,0,0,0,0,4.6816,4.6842,4.7061,4.6963,4.699,4.7043,4.7103,4.711,4.7148,4.7208,4.7217,4.716,4.727,4.7291,4.7407,4.7466,4.7364,4.7373,4.7713,4.7719,4.7724,4.7774,0,0,0,0,0,0,4.6807,4.6839,4.6888,4.6964,4.6996,4.7161,4.7106,4.7115,4.7165,4.7161,4.7239,4.7249,4.7269,4.7393,4.7416,4.7477,4.738,4.7708,4.7715,4.7722,4.7767,4.7781,4.7793,0,0,0,0,0,4.6797,4.6895,4.689,4.6917,4.7058,4.7164,4.7182,4.7204,4.7169,4.7219,4.7258,4.7246,4.7456,4.7405,4.7431,4.7496,4.7704,4.7713,4.7722,4.7762,4.7778,4.7793,0,0,0,0,0,0,4.6824,4.6905,4.6901,4.7027,4.7089,4.7162,4.7225,4.7221,4.7294,4.7287,4.7311,4.7329,4.7446,4.7482,4.7424,4.7625,4.7575,4.759,4.7597,4.7613,4.7625,4.7614,4.7388,0,0,0,0,0,4.6845,4.6925,4.6992,4.7097,4.7128,4.7171,4.7218,4.723,4.7295,4.7321,4.7368,4.7432,4.7512,4.7564,4.7642,4.7773,4.779,4.783,4.7843,4.7853,4.7866,4.794,4.7959,4.7756,4.7756,4.7756,0,0,4.6889,4.6943,4.6992,4.7104,4.7153,4.7236,4.7193,4.7282,4.7344,4.7334,4.7447,4.7484,4.7556,4.7681,4.7738,4.7715,4.7926,4.7865,4.7872,4.7879,4.7951,4.797,4.7987,4.7762,4.7761,4.776,0,0,4.7011,4.706,4.7154,4.7205,4.728,4.7308,4.7331,4.7405,4.743,4.7543,4.7538,4.7612,4.775,4.7802,4.7847,4.7992,4.7984,4.8016,4.8082,4.8154,4.817,4.8184,4.8237,4.8256,4.8028,4.8028,4.8028,0,4.7056,4.7181,4.7202,4.7293,4.7343,4.7339,4.7435,4.7483,4.758,4.7614,4.7587,4.7761,4.781,4.7947,4.7983,4.8019,4.8046,4.8007,4.8166,4.8181,4.8194,4.8245,4.8265,4.8032,4.8031,4.8031,4.8031,0,4.7233,4.7319,4.7386,4.7481,4.7538,4.763,4.7667,4.7723,4.773,4.7762,4.7878,4.7936,4.8026,4.8059,4.8067,4.8199,4.8183,4.8161,4.8111,4.8217,4.8265,4.8284,4.8037,4.8036,4.8034,4.8034,0,0,4.7376,4.7483,4.7507,4.7551,4.7635,4.7702,4.7795,4.7884,4.7932,4.7999,4.8078,4.8196,4.8177,4.8228,4.8241,4.8304,4.8417,4.8275,4.8277,4.83,4.8568,4.8585,4.8607,4.8413,4.8416,4.8419,4.8562,0,4.7508,4.7673,4.7696,4.7842,4.7923,4.7921,4.8003,4.8063,4.8096,4.817,4.8205,4.8289,4.8257,4.8288,4.835,4.839,4.8471,4.838,4.8487,4.8491,4.847,4.8632,4.8649,4.8781,4.8581,4.8584,4.8587,0,4.7683,4.7756,4.7911,4.7985,4.802,4.8093,4.8177,4.8247,4.8316,4.8336,4.8394,4.84,4.8497,4.8444,4.8579,4.8517,4.8562,4.8589,4.8595,4.8606,4.8545,4.8648,4.8823,4.8844,4.8616,4.8614,4.8612,0,4.7774,4.7911,4.8022,4.8059,4.8148,4.82,4.8239,4.8305,4.8358,4.8431,4.8466,4.8549,4.8595,4.866,4.869,4.8648,4.8824,4.8772,4.8843,4.8843,4.888,4.8878,4.9066,4.8909,4.8908,4.8908,4.8907,0,4.7919,4.8014,4.8064,4.8132,4.8238,4.8265,4.837,4.8408,4.8467,4.8543,4.8546,4.8617,4.8651,4.8728,4.8752,4.8861,4.8881,4.89,4.8906,4.8901,4.8898,4.8931,4.8923,4.8913,4.8912,4.8911,4.891,0,4.8039,4.8076,4.8196,4.8272,4.8293,4.8368,4.8433,4.85,4.8532,4.8628,4.8652,4.8703,4.8794,4.883,4.894,4.8956,4.9083,4.908,4.9059,4.9061,4.913,4.9123,4.9347,4.9378,4.9199,4.92,4.9202,0,4.8129,4.8202,4.8286,4.8337,4.8379,4.8461,4.8515,4.8544,4.86,4.8686,4.8742,4.8833,4.8907,4.9052,4.91,4.9185,4.9185,4.9257,4.9198,4.9191,4.9187,4.9183,4.9191,4.9268,4.927,4.9272,4.9273,0,4.8286,4.8302,4.8379,4.8464,4.8528,4.8596,4.8662,4.8704,4.8743,4.8806,4.8899,4.8957,4.9071,4.9161,4.925,4.9291,4.9289,4.9292,4.9313,4.9308,4.9294,4.9304,4.909,4.9286,4.9285,4.9284,4.9283,4.9283,4.8395,4.8461,4.853,4.8617,4.867,4.8732,4.8799,4.884,4.8918,4.9013,4.9026,4.9126,4.9195,4.9314,4.9359,4.9438,4.9419,4.9449,4.9457,4.9465,4.947,4.9281,4.9454,4.9454,4.9454,4.9453,4.9453,0,4.8554,4.8599,4.8678,4.8771,4.884,4.8832,4.8906,4.8964,4.9052,4.9117,4.919,4.9298,4.9386,4.9441,4.953,4.9583,4.9585,4.9605,4.9602,4.9612,4.9481,4.9455,4.9603,4.9603,4.9603,4.9603,4.9603,4.9603,4.8644,4.8755,4.8779,4.8917,4.8961,4.906,4.9102,4.916,4.9212,4.9333,4.9406,4.9441,4.9503,4.9596,4.9677,4.9691,4.9724,4.9747,4.9759,4.9636,4.9621,4.9606,4.9581,4.9754,4.9754,4.9884,4.9885,4.9886]},{"header":{"parameterUnit":"m.s-1","parameterCategory":1,"la1":30.2991,"la2":30.254,"lo1":-89.0895,"lo2":-89.0444,"dx":0.0017,"dy":0.0017,"nx":28,"ny":28,"refTime":"2023-01-22T03:00:00:Z","depth":0,"parameterNumber":3,"parameterNumberName":"V-component_of_WINDS"},"data":[0,0,0,0,0,0,0,0,0,0,0,0,0,0,0,0,0,0,0,0,0,0,0,0,0,0,0,0,0,0,0,0,0,0,0,0,0,0,0,0,0,0,0,0,0,0,0,0,0,0,0,0,0,0,0,0,0,0,-3.325,-3.3251,0,-3.3315,-3.3315,-3.3316,-3.3278,-3.3276,-3.3274,-3.3273,-3.3338,-3.3342,-3.3345,0,0,0,0,0,0,0,0,0,0,0,0,0,-3.3093,-3.3096,-3.325,-3.3251,-3.3251,-3.3315,-3.3315,-3.3316,-3.3278,-3.3276,-3.3274,-3.3272,-3.3337,-3.3341,-3.3345,0,0,0,0,0,0,0,0,0,0,0,0,0,-3.316,-3.3097,-3.325,-3.324,-3.324,-3.3314,-3.3315,-3.3317,-3.3279,-3.3276,-3.3273,-3.3271,-3.3336,-3.3341,-3.3346,-3.3433,0,0,-3.3362,-3.3364,0,0,0,0,0,0,0,0,-3.3156,-3.3165,-3.3241,-3.3241,-3.3241,-3.3286,-3.3284,-3.3356,-3.328,-3.3264,-3.3273,-3.327,-3.3323,-3.3329,-3.3347,-3.3436,-3.3439,-3.3362,-3.3365,-3.3368,-3.3369,0,0,0,0,0,0,0,-3.3151,-3.3162,-3.3275,-3.3242,-3.3242,-3.3233,-3.3239,-3.3297,-3.3308,-3.3265,-3.3263,-3.3271,-3.3322,-3.3342,-3.3348,-3.344,-3.3362,-3.3367,-3.337,-3.3372,-3.3604,-3.3607,0,0,0,0,0,0,-3.3147,-3.3159,-3.3273,-3.3277,-3.3191,-3.3238,-3.3245,-3.3274,-3.3307,-3.331,-3.3273,-3.3269,-3.3335,-3.3342,-3.335,-3.3455,-3.3367,-3.3372,-3.3375,-3.3601,-3.3605,-3.3608,0,0,0,0,0,0,-3.3144,-3.3158,-3.3271,-3.3217,-3.3231,-3.3243,-3.3276,-3.3277,-3.3296,-3.3313,-3.3315,-3.3292,-3.3333,-3.3343,-3.3413,-3.3456,-3.3375,-3.3379,-3.3597,-3.3602,-3.3606,-3.3664,0,0,0,0,0,0,-3.314,-3.3157,-3.319,-3.3218,-3.3234,-3.3332,-3.3279,-3.328,-3.3306,-3.3301,-3.3331,-3.3333,-3.3331,-3.3405,-3.3418,-3.3462,-3.3383,-3.3593,-3.3599,-3.3605,-3.3658,-3.367,-3.368,0,0,0,0,0,-3.3134,-3.3204,-3.3192,-3.3206,-3.3276,-3.3335,-3.3344,-3.334,-3.3309,-3.3343,-3.3354,-3.3332,-3.345,-3.3413,-3.3427,-3.3473,-3.3591,-3.3598,-3.3604,-3.3653,-3.3668,-3.368,0,0,0,0,0,0,-3.318,-3.3207,-3.3195,-3.3275,-3.3303,-3.3328,-3.337,-3.3356,-3.3393,-3.3386,-3.338,-3.3388,-3.346,-3.3474,-3.3432,-3.3559,-3.3515,-3.3525,-3.3548,-3.3562,-3.3572,-3.3567,-3.3388,0,0,0,0,0,-3.3199,-3.3245,-3.3266,-3.3335,-3.335,-3.3358,-3.3384,-3.3379,-3.3407,-3.3419,-3.3435,-3.3463,-3.3506,-3.3535,-3.3575,-3.366,-3.3666,-3.3699,-3.371,-3.3719,-3.3727,-3.3773,-3.3788,-3.363,-3.363,-3.363,0,0,-3.324,-3.326,-3.329,-3.3345,-3.3366,-3.3414,-3.3368,-3.342,-3.3455,-3.3426,-3.3493,-3.3506,-3.3537,-3.3615,-3.365,-3.3629,-3.3772,-3.3728,-3.3735,-3.3738,-3.3782,-3.3797,-3.381,-3.3635,-3.3634,-3.3634,0,0,-3.3338,-3.3358,-3.3418,-3.344,-3.3473,-3.3478,-3.3492,-3.352,-3.3528,-3.3595,-3.3574,-3.3616,-3.3691,-3.3714,-3.3735,-3.3843,-3.3825,-3.3857,-3.3913,-3.3959,-3.3971,-3.3982,-3.402,-3.4034,-3.3865,-3.3866,-3.3866,0,-3.3384,-3.3455,-3.345,-3.3504,-3.3529,-3.3506,-3.3567,-3.3589,-3.3633,-3.3651,-3.3626,-3.3719,-3.3739,-3.3822,-3.3848,-3.3867,-3.3883,-3.3853,-3.397,-3.3981,-3.3991,-3.4027,-3.4042,-3.3869,-3.3869,-3.3868,-3.3868,0,-3.351,-3.3559,-3.3604,-3.3648,-3.3678,-3.3735,-3.3739,-3.377,-3.3763,-3.3771,-3.384,-3.3862,-3.3907,-3.3927,-3.392,-3.4009,-3.3995,-3.397,-3.3926,-3.4009,-3.4044,-3.4058,-3.3874,-3.3873,-3.3872,-3.3871,0,0,-3.3637,-3.3679,-3.3695,-3.3715,-3.375,-3.3788,-3.3844,-3.3888,-3.3915,-3.3947,-3.3994,-3.4058,-3.4036,-3.406,-3.4056,-3.4095,-3.418,-3.4066,-3.4067,-3.4086,-3.4279,-3.4297,-3.4314,-3.4168,-3.4171,-3.4173,-3.4277,0,-3.3737,-3.3835,-3.3834,-3.3925,-3.397,-3.395,-3.3998,-3.4025,-3.4034,-3.4074,-3.4084,-3.413,-3.4097,-3.4111,-3.415,-3.4161,-3.4218,-3.4154,-3.4211,-3.4213,-3.4204,-3.4331,-3.4351,-3.4447,-3.429,-3.4292,-3.4294,0,-3.3866,-3.3903,-3.3999,-3.4027,-3.4046,-3.409,-3.4131,-3.417,-3.42,-3.4204,-3.4232,-3.4222,-3.4279,-3.4233,-3.4312,-3.4268,-3.4292,-3.4301,-3.4305,-3.431,-3.4258,-3.4339,-3.4478,-3.4493,-3.4315,-3.4313,-3.4312,0,-3.3949,-3.4023,-3.4089,-3.4107,-3.4142,-3.4174,-3.419,-3.4217,-3.4244,-3.428,-3.4298,-3.434,-3.4363,-3.4395,-3.4397,-3.4364,-3.4476,-3.4431,-3.4481,-3.4481,-3.4505,-3.4503,-3.4649,-3.4521,-3.452,-3.452,-3.452,0,-3.4061,-3.412,-3.4127,-3.4168,-3.4234,-3.4232,-3.4297,-3.4311,-3.4335,-3.4379,-3.4363,-3.4404,-3.4404,-3.4446,-3.4447,-3.4512,-3.4522,-3.4527,-3.4527,-3.4528,-3.4528,-3.4543,-3.4536,-3.4524,-3.4523,-3.4522,-3.4522,0,-3.4164,-3.4171,-3.4243,-3.4271,-3.4279,-3.4327,-3.435,-3.4389,-3.4397,-3.4452,-3.4465,-3.4478,-3.4526,-3.4531,-3.4587,-3.4588,-3.4666,-3.4659,-3.4656,-3.4655,-3.4705,-3.47,-3.4865,-3.4887,-3.4745,-3.4746,-3.4747,0,-3.4235,-3.428,-3.4313,-3.4341,-3.4359,-3.4404,-3.4432,-3.4432,-3.4462,-3.45,-3.4535,-3.4582,-3.4619,-3.4697,-3.4711,-3.4754,-3.4748,-3.4803,-3.4754,-3.4754,-3.4748,-3.4745,-3.475,-3.4812,-3.4813,-3.4815,-3.4816,0,-3.4359,-3.436,-3.4401,-3.4444,-3.4477,-3.4511,-3.4542,-3.4566,-3.457,-3.4604,-3.4653,-3.4683,-3.4741,-3.4787,-3.483,-3.4846,-3.4832,-3.4831,-3.4845,-3.4847,-3.4843,-3.4846,-3.4682,-3.4827,-3.4826,-3.4825,-3.4824,-3.4824,-3.4448,-3.4487,-3.4517,-3.4563,-3.4587,-3.4616,-3.4655,-3.4668,-3.4709,-3.4757,-3.4754,-3.4809,-3.4838,-3.4894,-3.4914,-3.4957,-3.4938,-3.4958,-3.4963,-3.4968,-3.4973,-3.4837,-3.4964,-3.4964,-3.4964,-3.4963,-3.4963,0,-3.4571,-3.4589,-3.4632,-3.4676,-3.4713,-3.4697,-3.4731,-3.4762,-3.4811,-3.484,-3.4877,-3.4935,-3.498,-3.4998,-3.5043,-3.5074,-3.5068,-3.5086,-3.5083,-3.5087,-3.4987,-3.497,-3.5089,-3.5089,-3.5089,-3.5089,-3.5089,-3.5089,-3.4639,-3.4705,-3.471,-3.4788,-3.4806,-3.486,-3.4881,-3.4908,-3.4931,-3.4996,-3.5034,-3.5046,-3.5071,-3.5117,-3.5158,-3.5163,-3.518,-3.52,-3.5201,-3.5107,-3.5094,-3.5082,-3.5066,-3.5203,-3.5204,-3.5298,-3.5298,-3.5299]}]]